CZ-6A DEB

Satellite information

Favourite Embed

Satellite Type and Status

DEBRISIN ORBIT

Key statistics

Satellite CZ-6A DEB at a glance.

Uptime

968

Days in orbit

Revolutions

≈ 14.7

Per day

Orbit

SSO

Sun Synchronous Orbit

Inclination

98.7

Latest

Satellite identification and parameters

Extended collection of information and parameters for CZ-6A DEB.

Object identification

Identified? True

Debris? True

Object name: CZ-6A DEB

International designator: 2022-151LD

Object number (NORAD): 54553

Object ID (CCSDS): 54553

Country: PEOPLES REPUBLIC OF CHINA (PRC)

Current information (Y/N): Y

RCS size: SMALL

Orbital parameters

Period: 97.763 minutes

Inclination: 98.6648 deg

SMA: 7029.792 km

Apoapsis: 695.401 km

Periapsis: 607.914 km

RAAN: 235.5078 deg

Eccentricy: 0.0062226

Argument of periapsis: 269.4793 deg

Mean anomaly: 89.9282 deg

Mean motion: 14.72953442 rev/day

Mean motion (dot): 0.00012494 rev/day2

B* drag term: 0.0018947 1/REarth

Two-line elements (TLE)

Creation date: July 5, 2025, 11:06 p.m.

Reference frame: TEME

Reference center: EARTH

Epoch: July 5, 2025, 5 p.m. UTC

TLE line 0: 0 CZ-6A DEB

TLE line 1: 1 54553U 22151LD 25186.70900087 .00012494 00000-0 18947-2 0 9997

TLE line 2: 2 54553 98.6648 235.5078 0062226 269.4793 89.9282 14.72953442139678

Live tracking on map

Real-time ground track for satellite CZ-6A DEB.

In-orbit conjunctions

A list of the most updated potential collisions computed for object CZ-6A DEB.

Target Orbit TCA Probability of collision Miss distance Type
TAURUS R/B LEO 2024-12-01 22:37:08 0.0001083909 372.0 (m) ROCKET BODY
FENGYUN 1C DEB SSO 2024-10-01 01:24:30 0.000128073 62.0 (m) DEBRIS
SL-8 R/B LEO 2024-09-25 20:08:03 0.0001891312 835.0 (m) ROCKET BODY

Associated space launch

Chinese satellite reported for atmospheric/ocean/environmental/spatial parameter research purposes, details TBD.

CZ-6A DEB was lifted into orbit during the mission ‘Long March 6A | Yunhai 3’, on board a Long March 6A space rocket.

The launch took place on Nov. 11, 2022, 10:52 p.m. from Launch Complex 9A.

For more information about the launch, click the button.

Launch to space Long March 6A | Yunhai 3
Long March 6A | Yunhai 3

Agency: N/A

Status: Launch Successful

Launch date: Nov. 11, 2022, 10:52 p.m. UTC

Rocket: Long March 6A

Launch pad: Launch Complex 9A

Location: Taiyuan Satellite Launch Center, People's Republic of China

...

Latest news about this satellite

There are no fresh news available about this satellite. Check back as we update our databases every day.


Newsletter sign-up

Weekly statistics, charts and insights to help you stay on top of the space industry.